Regional Weather Roundup
Issued by NWS Austin/San Antonio, TX

Home | Current Version | Previous Version | Text Only | Print | Product List | Glossary On
Versions: 1 2 3 4 5 6 7 8 9 10 11 12 13 14 15 16 17 18 19 20 21 22 23 24 25 26 27 28 29 30 31 32 33 34 35 36 37 38 39 40 41 42 43 44 45 46 47 48 49 50
000
ASUS44 KEWX 261712
RWREWX
SOUTH TEXAS REGIONAL WEATHER ROUNDUP
NATIONAL WEATHER SERVICE AUSTIN/SAN ANTONIO TX
1200 PM CDT FRI MAY 26 2017

NOTE: "FAIR" INDICATED FEW OR NO CLOUDS BELOW 12,000 FEET WITH NO
SIGNIFICANT WEATHER AND/OR OBSTRUCTIONS TO VISIBILITY.

* - THESE STATIONS ARE NOT NWS OR FAA STATIONS...AND ARE NOT SUBJECT
    TO NWS AND FAA QUALITY CONTROL.

TXZ171-172-183>190-261800-
TEXAS HILL COUNTRY AND EDWARDS PLATEAU

CITY           SKY/WX    TMP DP  RH WIND       PRES   REMARKS
JUNCTION       SUNNY     86  70  58 S13       29.89S HX  90
*LLANO         CLOUDY    84  73  70 S7G16     29.91S HX  91
BURNET         NOT AVBL
*HORSESHOE BAY NOT AVBL
*KERRVILLE     CLOUDY    76  75  95 S7        29.93R
*FREDERICKSBRG CLOUDY    76  71  85 SW12      29.92R
*ROCKSPRINGS   MOSUNNY   84  72  65 S6        29.95F
*BOERNE STAGE  CLOUDY    75  72  88 S8        29.93R
*CASTROVILLE   CLOUDY    82  72  71 S7        29.90R
HONDO          CLOUDY    81  74  79 S7        29.89R
*UVALDE        CLOUDY    79  73  83 CALM      29.90R
DEL RIO        PTSUNNY   85  73  67 S6        29.86S HX  91
LAUGHLIN AFB   PTSUNNY   85  74  70 S9        29.87S HX  93
CARRIZO SPRGS  CLOUDY    86  72  62 S8        29.84S HX  92
*EAGLE PASS    NOT AVBL
$$

TXZ173-191>194-202-209-217>225-228-261800-
CENTRAL AND SOUTH CENTRAL TEXAS

CITY           SKY/WX    TMP DP  RH WIND       PRES   REMARKS
GEORGETOWN     CLOUDY    81  72  74 S15G21    29.87R
AUSTIN/BERGSTM CLOUDY    82  74  76 S14       29.87R
AUSTIN/MABRY   CLOUDY    80  73  79 VRB6      29.89R
*AUSTIN/EXEC   CLOUDY    81  73  78 S9        29.88S
*LAGO VISTA    CLOUDY    79  73  81 S8G20     29.90R
SAN MARCOS     CLOUDY    81  73  78 S15       29.89R
NEW BRAUNFELS  CLOUDY    82  73  74 S13       29.87R
RANDOLPH AFB   CLOUDY    80  75  85 S12       29.88S
PT SAN ANTONIO CLOUDY    81  73  78 S9        29.88R
SAN ANTONIO    CLOUDY    81  72  74 S12       29.89R
STINSON FIELD  CLOUDY    82  73  74 S8        29.87R
*LA GRANGE     CLOUDY    87  76  68 S13G21    29.86S HX  98
*GIDDINGS      CLOUDY    82  73  74 S12       29.89S
*GONZALES      CLOUDY    87  76  68 S15G21    29.87S HX  97
$$

TXZ163>164-176>182-195>201-210>213-226-227-235-261800-
SOUTHEAST TEXAS

CITY           SKY/WX    TMP DP  RH WIND       PRES   REMARKS
COLLEGE STN    CLOUDY    83  73  72 S21       29.88S
*BRYAN         CLOUDY    85  74  69 S18G24    29.90R HX  91
*CALDWELL      NOT AVBL
*CROCKETT      CLOUDY    82  73  74 S14       29.92S
*BRENHAM       CLOUDY    85  73  68 S17G23    29.90S HX  92
HUNTSVILLE     CLOUDY    83  72  69 S14G22    29.91R
CONROE         CLOUDY    84  72  67 S14G23    29.91S
HOUSTON BUSH   PTSUNNY   87  71  58 S10       29.91F HX  93
HOUSTON HOBBY  PTSUNNY   87  73  62 S14       29.91R HX  94
*HOUSTON SW AP PTSUNNY   86  74  67 S9        29.93R HX  94
PEARLAND       PTSUNNY   87  72  60 S13G22    29.94R HX  93
HOUSTON HOOKS  CLOUDY    85  72  65 S17       29.91S HX  91
ELLINGTON FLD  PTSUNNY   90  73  58 S14       29.94R HX  98
SUGAR LAND     PTSUNNY   87  73  62 S12G22    29.90F HX  94
*HOUSTON EXEC  PTSUNNY   86  73  66 SW15      29.92S HAZE    HX  93
*CLEVELAND MUN CLOUDY    85  74  70 S10       29.93S HX  93
*WHARTON       CLOUDY    82  72  70 S9        29.92S
*COLUMBUS      CLOUDY    84  73  69 S13G21    29.90F HX  90
*EAGLE LAKE    CLOUDY    84  76  76 S10G17    29.90S HX  93
$$

TXZ214>216-236>238-261800-
THE UPPER TEXAS COAST

CITY           SKY/WX    TMP DP  RH WIND       PRES   REMARKS
*ORANGE        CLOUDY    83  73  72 S12G20    29.98R
PORT ARTHUR    PTSUNNY   86  71  60 S17G24    29.95R HX  91
GALVESTON      MOSUNNY   85  76  74 S15       29.95S HX  94
ANGLETON       PTSUNNY   86  75  69 S16       29.93R HX  95
*BAY CITY      CLOUDY    85  74  71 S12G17    29.92S HX  92
PALACIOS       CLOUDY    81  74  79 S14       29.91R
$$

TXZ229>234-239>247-261800-
TEXAS COASTAL BEND AND RIO GRANDE PLAINS

CITY           SKY/WX    TMP DP  RH WIND       PRES   REMARKS
VICTORIA       CLOUDY    84  75  74 S12       29.89S HX  92
*BEEVILLE      CLOUDY    84  77  79 SE15      29.86F HX  95
ROCKPORT       CLOUDY    83  76  79 SE9       29.88R HX  91
*PORT ARANSAS  CLOUDY    83  76  79 SE12      29.88R HX  91
*PORT LAVACA   CLOUDY    82  77  85 S14       29.90S HX  90
*INGLESIDE     CLOUDY    84  77  79 SE14G22   29.87S HAZE    HX  94
CORPUS CHRISTI CLOUDY    84  77  79 S13G23    29.86R HX  94
CORPUS NAS     CLOUDY    86  78  77 S15       29.87R HX  98
*ROBSTOWN      PTSUNNY   86  76  72 S13       29.86S HX  96
ALICE          CLOUDY    88  74  63 SE13      29.84S HX  96
KINGSVILLE NAS PTSUNNY   88  78  72 SE12      29.85R HX 101
COTULLA        PTSUNNY   88  72  58 SE10      29.85R HX  94
*FAITH RANCH   CLOUDY    84  73  70 S8        29.85S HX  91
LAREDO         CLOUDY    85  74  69 S7        29.85R HX  92
$$

TXZ248>255-261800-
DEEP SOUTH TEXAS

CITY           SKY/WX    TMP DP  RH WIND       PRES   REMARKS
BROWNSVILLE    CLOUDY    90  77  65 S28G36    29.83F HX 103
PORT ISABEL    PTSUNNY   89  76  65 S26G35    29.83R HX 100
*SOUTH PADRE   NOT AVBL
HARLINGEN      PTSUNNY   93  77  59 S28G33    29.82R HX 107
*HEBBRONVILLE  PTSUNNY   88  71  56 S14G23    29.85S HX  94
MCALLEN        PTSUNNY   94  75  54 S23G29    29.81R HX 105
*WESLACO       CLOUDY    91  75  59 S20G28    29.81R HX 102
FALFURRIAS     PTSUNNY   90  74  59 S13G18    29.83S HX 100
EDINBURG       CLOUDY    94  73  49 S17G25    29.82S HX 102
*ZAPATA        CLOUDY    87  73  62 SE8       29.82S HX  94
$$

TXZ213>215-236>238-242>244-246-247-251-254-255-261800-
CMAN STATIONS

STATION/POSITION TIME  TEMP    WIND        PRES    WAVE
                       AIR SEA DIR/SP/G            HT/PER
                 (UTC) (F)     (DEG/KT/KT) (MB)    (FT/S)
SABINE PASS      1648   81 80  190/ 12/ 17 1016.0
SEA RIM ST PARK  1700   80     180/ 12/ 13 1015.1
NORTH JETTY/GLS  1642      79  170/ 13/ 15 1013.6
EAGLE POINT      1648   80 77  200/ 15/ 18 1013.7
MORGANS POINT    1648   83 78  160/ 10/ 13 1013.4
MISSION/ARANSAS  1600   80                 1012.0
PORT O`CONNOR    1648   79     150/ 11/ 14 1012.4
PORT ARANSAS     1700   80 79  140/ 11/ 12 1011.8
MALAQUITE BEACH  1648   80 80  130/ 14/ 16 1011.8
BAFFIN BAY       1648   82 80              1010.9
PORT ISABEL      1648   84 81  150/ 22/ 28 1010.3
$$



USA.gov is the U.S. government's official web portal to all federal, state and local government web resources and services.